GCFVGCLA

Guest
Details From GCFV - Fuerteventura
To GCLA - La Palma
Flight Number -
Tags generated
Created
Modified
Stats Distance 217 nm / 401 km
Max Altitude 28,000 ft / 8,534 m
Waypoints 4
Social Downloads 1
Likes 0
Share VATSIM

Download

Looking for another format? Having issues loading an existing format? Contact us
Advertisement - Login to hide

Notes

Basic altitude profile: - Ascent Rate: 2500ft/min - Ascent Speed: 250kts - Cruise Altitude: 1500ft - Cruise Speed: 420kts - Descent Rate: 2000ft/min - Descent Speed: 250kts Options: - Use NATs: yes - Use PACOTS: yes - Use low airways: yes - Use high airways: yes

Route

GCFV GDV UH200 TFN GCLA

ID Type Via Altitude Latitude Longitude Leg Dist Tot Dist Heading (true) Name
O GCFV APT - 0 ft / 0 m 28.44788˚ -13.86489˚ - 0 nm - Fuerteventura
GDV VOR - 28,000 ft / 8,534 m 28.07708˚ -15.42899˚ 85 nm 85 nm 255° / 255° GRAN CANARIA VOR-DME
TFN VOR UH200 (AWY-HI) 24,500 ft / 7,468 m 28.53683˚ -16.26878˚ 52 nm 137 nm 302° / 302° TENERIFE NORTE VOR-DME
O GCLA APT - 0 ft / 0 m 28.62648˚ -17.75561˚ 78 nm 216 nm 274° / 274° La Palma

Altitude Profile

Advertisement - Login to hide

Weather


0- 5 10 15 20 25 30 35+ Temperature / ° C

Clouds and Precipitation
Forecast for 2018-05-20 12:00 UTC. Updated 2 hours ago

Ground ~20,000 ft ~40,000 ft Winds

GCFV

Details ICAO GCFV (FUE)
Name Fuerteventura
Region Canary Islands
Timezone Atlantic/Canary (UTC+1.0)
Stats Elevation 85 ft / 26 m (AMSL)
Location 28.447882° -13.864892°
Runways 2
Magnetic Variation 4.049° W

METAR

GCFV 201230Z 02013KT 290V090 9999 BKN048 22/12 Q1016

Decode

TAF

TAF TAF GCFV 200800Z 2009/2109 03013KT 9999 SCT030 TX24/2015Z TN17/2105Z BECMG 2019/2021 33007KT

Decode

Departure Runways

ID Width Length Bearing (true) Bearing (mag) Surface Threshold Offset Overrun Length
01L 148 ft / 45 m 5,433 ft / 1,656 m 1.67° 5.72° Asphalt 0 ft / 0 m 984 ft / 300 m
01R 148 ft / 45 m 7,905 ft / 2,409 m 1.66° 5.71° Asphalt 0 ft / 0 m 3,281 ft / 1,000 m
19L 148 ft / 45 m 7,905 ft / 2,409 m 181.66° 185.71° Asphalt 0 ft / 0 m 197 ft / 60 m
19R 148 ft / 45 m 5,433 ft / 1,656 m 181.67° 185.72° Asphalt 0 ft / 0 m 820 ft / 250 m

GCLA

Details ICAO GCLA (SPC)
Name La Palma
Region Canary Islands
Timezone Atlantic/Canary (UTC+1.0)
Stats Elevation 107 ft / 33 m (AMSL)
Location 28.626480° -17.755613°
Runways 1
Magnetic Variation 5.471° W

METAR

GCLA 201230Z 03009KT 350V070 9999 BKN040 22/12 Q1018

Decode

TAF

TAF GCLA 200800Z 2009/2109 33007KT 9999 BKN035 TX21/2015Z TN17/2105Z BECMG 2010/2012 03010KT BECMG 2019/2021 29005KT

Decode

Destination Runways

ID Width Length Bearing (true) Bearing (mag) Surface Threshold Offset Overrun Length
01 148 ft / 45 m 7,240 ft / 2,207 m 359.02° 4.49° Asphalt 0 ft / 0 m 279 ft / 85 m
19 148 ft / 45 m 7,240 ft / 2,207 m 179.02° 184.49° Asphalt 0 ft / 0 m 236 ft / 72 m

Popular Alternatives